FW5161 Weather Reports


Display with metric or nautical units.
time (UTC)temp
F
wind
direction
speed
MPH
gust
MPH
rain 1hr
in
rain 24hr
in
rain mn
in
humidity
%
barometer
mb
20260831072414 58 119 2.0 3.0 0.00 0.00 0.00 79 1016.2
20260831071912 57 119 2.0 3.0 0.00 0.00 0.00 80 1016.2
20260831071412 57 119 2.0 3.0 0.00 0.00 0.00 80 1016.3
20260831070911 57 119 2.0 3.0 0.00 0.00 0.00 79 1016.3
20260831070412 57 119 2.0 3.0 0.00 0.00 0.00 79 1016.2
20260831065911 57 119 2.0 3.0 0.00 0.00 0.00 79 1016.3
20260831065409 57 119 2.0 3.0 0.00 0.00 0.00 79 1016.3
20260831064907 58 119 2.0 3.0 0.00 0.00 0.00 80 1016.3
20260831064632 58 119 2.0 3.0 0.00 0.00 0.00 80 1016.3
20260831063904 58 119 2.0 3.0 0.00 0.00 0.00 80 1016.4
20260831063402 58 119 2.0 3.0 0.00 0.00 0.00 80 1016.4
20260831062859 58 120 2.0 3.0 0.00 0.00 0.00 80 1016.5
20260831062353 58 120 2.0 3.0 0.00 0.00 0.00 80 1016.5
20260831061852 58 120 1.0 3.0 0.00 0.00 0.00 80 1016.5
20260831061353 58 120 1.0 3.0 0.00 0.00 0.00 80 1016.6
20260831060856 59 120 2.0 3.0 0.00 0.00 0.00 79 1016.5
20260831060353 59 150 1.0 3.0 0.00 0.00 0.00 79 1016.6
20260831055853 59 150 1.0 2.0 0.00 0.00 0.00 79 1016.6
20260831055353 59 150 1.0 3.0 0.00 0.00 0.00 78 1016.5
20260831055119 58 150 1.0 3.0 0.00 0.00 0.00 78 1016.6
20260831054351 58 150 1.0 2.0 0.00 0.00 0.00 78 1016.6
20260831053851 58 150 0.0 0.0 0.00 0.00 0.00 78 1016.6
20260831052847 58 150 0.0 0.0 0.00 0.00 0.00 78 1016.7
20260831052347 58 150 0.0 0.0 0.00 0.00 0.00 78 1016.7
20260831051847 58 150 0.0 0.0 0.00 0.00 0.00 78 1016.8
20260831051344 58 150 0.0 0.0 0.00 0.00 0.00 78 1016.8
20260831050844 58 150 0.0 0.0 0.00 0.00 0.00 78 1016.8
20260831050613 58 150 0.0 0.0 0.00 0.00 0.00 78 1016.9
20260831045844 58 150 0.0 0.0 0.00 0.00 0.00 78 1017.0
20260831045346 58 150 0.0 0.0 0.00 0.00 0.00 78 1017.0
20260831044846 58 150 0.0 0.0 0.00 0.00 0.00 77 1017.0
20260831044345 59 150 0.0 0.0 0.00 0.00 0.00 77 1017.0
20260831043845 59 150 0.0 0.0 0.00 0.00 0.00 78 1017.0
20260831043345 59 150 0.0 0.0 0.00 0.00 0.00 77 1017.1
20260831042840 59 150 0.0 0.0 0.00 0.00 0.00 77 1017.0
20260831042341 59 150 0.0 0.0 0.00 0.00 0.00 76 1017.1
20260831041841 59 150 0.0 0.0 0.00 0.00 0.00 76 1017.2
20260831041340 59 150 0.0 0.0 0.00 0.00 0.00 76 1017.3
20260831040841 59 150 0.0 0.0 0.00 0.00 0.00 76 1017.2
20260831040342 59 150 0.0 0.0 0.00 0.00 0.00 77 1017.3
20260831040111 59 150 0.0 2.0 0.00 0.00 0.00 77 1017.3
20260831035344 59 150 1.0 2.0 0.00 0.00 0.00 76 1017.3
20260831034842 59 150 2.0 2.0 0.00 0.00 0.00 77 1017.2
20260831034340 59 150 2.0 2.0 0.00 0.00 0.00 77 1017.2
20260831033836 59 150 1.0 2.0 0.00 0.00 0.00 76 1017.2
20260831033336 60 151 0.0 1.0 0.00 0.00 0.00 76 1017.3
20260831032835 60 151 0.0 2.0 0.00 0.00 0.00 76 1017.2
20260831032335 60 151 0.0 2.0 0.00 0.00 0.00 75 1017.2
20260831032056 60 151 0.0 0.0 0.00 0.00 0.00 75 1017.1
20260831031555 61 151 0.0 0.0 0.00 0.00 0.00 76 1017.0
20260831031057 62 151 0.0 2.0 0.00 0.00 0.00 72 1017.1
20260831030328 62 151 0.0 2.0 0.00 0.00 0.00 71 1017.1
20260831025831 62 150 1.0 6.0 0.00 0.00 0.00 72 1017.1
20260831025329 62 193 1.0 6.0 0.00 0.00 0.00 73 1017.3
20260831024829 62 130 1.0 3.0 0.00 0.00 0.00 72 1017.2
20260831024328 62 106 1.0 3.0 0.00 0.00 0.00 72 1017.1
20260831023829 62 106 1.0 3.0 0.00 0.00 0.00 73 1017.2
20260831023328 62 45 0.0 2.0 0.00 0.00 0.00 73 1017.1
20260831022329 62 320 1.0 2.0 0.00 0.00 0.00 73 1017.4
20260831021832 62 320 1.0 2.0 0.00 0.00 0.00 74 1017.3
20260831021332 63 320 0.0 2.0 0.00 0.00 0.00 74 1017.3
20260831020833 63 320 0.0 1.0 0.00 0.00 0.00 74 1017.3
20260831020329 63 320 0.0 2.0 0.00 0.00 0.00 73 1017.4
20260831015823 63 320 0.0 2.0 0.00 0.00 0.00 72 1017.5
20260831015317 63 320 0.0 1.0 0.00 0.00 0.00 72 1017.5
20260831014811 63 320 0.0 1.0 0.00 0.00 0.00 71 1017.5
20260831014534 63 320 0.0 2.0 0.00 0.00 0.00 71 1017.5
20260831013807 63 320 0.0 2.0 0.00 0.00 0.00 70 1017.5
20260831013304 63 320 0.0 1.0 0.00 0.00 0.00 71 1017.6
20260831012802 63 320 0.0 1.0 0.00 0.00 0.00 71 1017.7
20260831012305 63 320 0.0 2.0 0.00 0.00 0.00 71 1017.7
20260831011802 63 320 1.0 2.0 0.00 0.00 0.00 72 1017.8
20260831011301 63 320 1.0 3.0 0.00 0.00 0.00 72 1017.8
20260831011021 63 320 1.0 3.0 0.00 0.00 0.00 72 1017.8
20260831010301 63 320 0.0 2.0 0.00 0.00 0.00 71 1017.8
20260831005802 64 320 0.0 2.0 0.00 0.00 0.00 70 1017.8
20260831005302 64 320 1.0 3.0 0.00 0.00 0.00 72 1017.9
20260831005030 63 315 1.0 3.0 0.00 0.00 0.00 71 1018.0
20260831004302 64 315 0.0 2.0 0.00 0.00 0.00 71 1017.8
20260831003801 63 315 0.0 2.0 0.00 0.00 0.00 69 1017.7
20260831003303 63 315 0.0 2.0 0.00 0.00 0.00 70 1017.9
20260831002801 63 315 1.0 2.0 0.00 0.00 0.00 72 1017.8
20260831002301 63 315 1.0 2.0 0.00 0.00 0.00 70 1017.9
20260831001801 64 315 1.0 2.0 0.00 0.00 0.00 70 1018.1
20260831001255 64 315 1.0 3.0 0.00 0.00 0.00 72 1018.1
20260831001017 64 315 1.0 3.0 0.00 0.00 0.00 72 1018.2
20260831000255 63 315 1.0 3.0 0.00 0.00 0.00 73 1018.2
20260830235752 63 315 1.0 3.0 0.00 0.00 0.00 72 1018.2
20260830235249 64 315 1.0 3.0 0.00 0.00 0.00 72 1018.2
20260830234751 63 315 1.0 3.0 0.00 0.00 0.00 73 1018.3
20260830234250 63 315 1.0 3.0 0.00 0.00 0.00 72 1018.2
20260830233750 63 315 0.0 3.0 0.00 0.00 0.00 72 1018.2
20260830233251 64 315 0.0 3.0 0.00 0.00 0.00 72 1018.2
20260830232751 64 310 1.0 2.0 0.00 0.00 0.00 72 1018.2
20260830232249 64 310 1.0 3.0 0.00 0.00 0.00 71 1018.3
20260830231748 64 310 2.0 4.0 0.00 0.00 0.00 72 1018.3
20260830231249 64 310 1.0 4.0 0.00 0.00 0.00 71 1018.4
20260830230746 64 295 1.0 3.0 0.00 0.00 0.00 72 1018.3
20260830230246 64 295 2.0 4.0 0.00 0.00 0.00 72 1018.3
20260830225746 64 295 2.0 4.0 0.00 0.00 0.00 71 1018.2
20260830225505 64 240 1.0 3.0 0.00 0.00 0.00 71 1018.2
20260830224743 64 130 1.0 3.0 0.00 0.00 0.00 71 1018.3
20260830224242 64 124 1.0 5.0 0.00 0.00 0.00 71 1018.3
20260830223735 64 122 3.0 6.0 0.00 0.00 0.00 71 1018.3
20260830223237 64 184 2.0 6.0 0.00 0.00 0.00 72 1018.4
20260830222736 63 172 3.0 8.0 0.00 0.00 0.00 72 1018.4
20260830222236 63 182 5.0 10.0 0.00 0.00 0.00 72 1018.4
20260830221735 63 108 4.0 10.0 0.00 0.00 0.00 72 1018.5
20260830221236 63 132 4.0 8.0 0.00 0.00 0.00 72 1018.5
20260830220736 64 273 4.0 8.0 0.00 0.00 0.00 72 1018.5
20260830220236 64 236 4.0 9.0 0.00 0.00 0.00 71 1018.6
20260830215735 64 229 5.0 9.0 0.00 0.00 0.00 71 1018.5
20260830215233 64 114 4.0 10.0 0.00 0.00 0.00 69 1018.7
20260830214735 65 307 4.0 10.0 0.00 0.00 0.00 69 1018.6
20260830214229 65 275 4.0 9.0 0.00 0.00 0.00 68 1018.7
20260830213730 65 311 3.0 8.0 0.00 0.00 0.00 71 1018.6
20260830213232 65 285 4.0 8.0 0.00 0.00 0.00 68 1018.7
20260830212729 66 348 4.0 8.0 0.00 0.00 0.00 69 1018.7
20260830212230 65 221 3.0 7.0 0.00 0.00 0.00 70 1018.7
20260830211730 65 312 3.0 6.0 0.00 0.00 0.00 70 1018.7
20260830210730 66 300 3.0 8.0 0.00 0.00 0.00 69 1018.6
20260830210229 66 119 4.0 10.0 0.00 0.00 0.00 69 1018.6
20260830205729 65 308 4.0 10.0 0.00 0.00 0.00 71 1018.6
20260830205229 66 295 4.0 9.0 0.00 0.00 0.00 69 1018.6
20260830204729 66 295 4.0 10.0 0.00 0.00 0.00 71 1018.6
20260830204229 65 285 3.0 10.0 0.00 0.00 0.00 69 1018.6
20260830203729 66 303 2.0 7.0 0.00 0.00 0.00 71 1018.5
20260830203459 64 245 4.0 9.0 0.00 0.00 0.00 72 1018.5
20260830202732 64 90 4.0 9.0 0.00 0.00 0.00 72 1018.5
20260830202232 64 197 3.0 9.0 0.00 0.00 0.00 74 1018.5
20260830202001 64 161 3.0 10.0 0.00 0.00 0.00 74 1018.5
20260830201503 63 129 4.0 11.0 0.00 0.00 0.00 74 1018.7
20260830201000 63 83 3.0 11.0 0.00 0.00 0.00 73 1018.7
20260830200229 64 73 2.0 10.0 0.00 0.00 0.00 74 1018.7
20260830195729 64 86 2.0 8.0 0.00 0.00 0.00 75 1018.8
20260830195229 63 239 4.0 11.0 0.00 0.00 0.00 75 1018.8
20260830194729 62 132 4.0 11.0 0.00 0.00 0.00 77 1018.9
20260830194228 62 243 5.0 9.0 0.00 0.00 0.00 78 1018.7
20260830193957 62 229 5.0 13.0 0.00 0.00 0.00 78 1018.8
20260830193228 62 141 4.0 13.0 0.00 0.00 0.00 77 1018.9
20260830192728 62 108 3.0 12.0 0.00 0.00 0.00 77 1018.8
20260830192458 62 229 5.0 12.0 0.00 0.00 0.00 79 1018.7
20260830191729 61 122 4.0 12.0 0.00 0.00 0.00 79 1018.9
20260830191230 61 246 4.0 11.0 0.00 0.00 0.00 79 1018.9
20260830190729 61 159 5.0 11.0 0.00 0.00 0.00 79 1018.9
20260830190232 61 218 4.0 9.0 0.00 0.00 0.00 79 1018.9
20260830185733 61 110 5.0 10.0 0.00 0.00 0.00 80 1018.9
20260830185230 61 290 5.0 14.0 0.00 0.00 0.00 79 1018.9
20260830184730 61 256 4.0 14.0 0.00 0.00 0.00 79 1018.9
20260830184229 62 242 4.0 11.0 0.00 0.00 0.00 80 1018.7
20260830183727 61 145 4.0 11.0 0.00 0.00 0.00 80 1018.8
20260830183222 61 255 3.0 10.0 0.00 0.00 0.00 80 1018.7
20260830182715 61 85 3.0 10.0 0.00 0.00 0.00 80 1018.8
20260830182208 60 199 4.0 10.0 0.00 0.00 0.00 81 1018.7
20260830181704 60 303 4.0 10.0 0.00 0.00 0.00 82 1018.7
20260830181207 60 139 5.0 13.0 0.00 0.00 0.00 82 1018.6
20260830180937 60 239 4.0 13.0 0.00 0.00 0.00 83 1018.8
20260830180204 60 114 4.0 11.0 0.00 0.00 0.00 83 1018.8
20260830175701 60 178 5.0 15.0 0.00 0.00 0.00 83 1018.7
20260830175201 59 112 6.0 15.0 0.00 0.00 0.00 83 1018.6
20260830174704 60 101 6.0 14.0 0.00 0.00 0.00 83 1018.6
20260830174201 59 99 7.0 16.0 0.00 0.00 0.00 83 1018.6
20260830173925 59 151 7.0 16.0 0.00 0.00 0.00 84 1018.6
20260830173201 59 126 8.0 15.0 0.00 0.00 0.00 84 1018.6
20260830172701 59 141 7.0 13.0 0.00 0.00 0.00 84 1018.7
20260830172201 59 161 9.0 17.0 0.00 0.00 0.00 84 1018.5
20260830171701 58 89 9.0 18.0 0.00 0.00 0.00 84 1018.4
20260830171201 59 174 8.0 18.0 0.00 0.00 0.00 84 1018.4
20260830170701 58 168 8.0 18.0 0.00 0.00 0.00 84 1018.4
20260830170201 58 153 9.0 18.0 0.00 0.00 0.00 83 1018.3
20260830165701 58 119 8.0 16.0 0.00 0.00 0.00 83 1018.4
20260830165201 59 137 6.0 16.0 0.00 0.00 0.00 82 1018.5
20260830164151 59 151 4.0 12.0 0.00 0.00 0.00 83 1018.5
20260830163645 58 108 4.0 13.0 0.00 0.00 0.00 82 1018.5
20260830163139 59 203 4.0 13.0 0.00 0.00 0.00 82 1018.4
20260830162634 59 109 5.0 14.0 0.00 0.00 0.00 82 1018.4
20260830162133 59 157 5.0 14.0 0.00 0.00 0.00 82 1018.5
20260830161633 58 147 3.0 10.0 0.00 0.00 0.00 82 1018.3
20260830160632 58 197 6.0 14.0 0.00 0.00 0.00 85 1018.3
20260830160132 57 116 7.0 15.0 0.00 0.00 0.00 85 1018.4
20260830155632 57 161 8.0 15.0 0.00 0.00 0.00 85 1018.3
20260830155358 57 134 9.0 16.0 0.00 0.00 0.00 86 1018.3
20260830154631 56 152 8.0 16.0 0.00 0.00 0.00 86 1018.4
20260830154134 57 130 8.0 16.0 0.00 0.00 0.00 85 1018.4
20260830153632 57 137 7.0 16.0 0.00 0.00 0.00 84 1018.3
20260830153132 57 139 8.0 12.0 0.00 0.00 0.00 83 1018.3
20260830152632 58 151 8.0 13.0 0.00 0.00 0.00 82 1018.2
20260830152137 58 126 6.0 13.0 0.00 0.00 0.00 81 1018.2
20260830151632 58 128 6.0 11.0 0.00 0.00 0.00 79 1018.2
20260830151134 58 228 5.0 11.0 0.00 0.00 0.00 79 1018.2
20260830150632 58 193 4.0 13.0 0.00 0.00 0.00 79 1018.2
20260830150132 58 126 4.0 13.0 0.00 0.00 0.00 78 1018.2
20260830145635 58 139 4.0 10.0 0.00 0.00 0.00 79 1018.2
20260830145402 58 131 3.0 9.0 0.00 0.00 0.00 79 1018.2
20260830144632 58 102 4.0 12.0 0.00 0.00 0.00 79 1018.1
20260830143901 58 193 3.0 10.0 0.00 0.00 0.00 79 1018.2
20260830143132 58 173 2.0 6.0 0.00 0.00 0.00 79 1018.1
20260830142632 58 257 2.0 6.0 0.00 0.00 0.00 79 1018.1
20260830142132 58 135 2.0 7.0 0.00 0.00 0.00 79 1017.9
20260830141634 57 133 2.0 7.0 0.00 0.00 0.00 80 1017.9
20260830141134 57 117 2.0 8.0 0.00 0.00 0.00 80 1017.9
20260830140634 57 117 2.0 8.0 0.00 0.00 0.00 80 1018.0
20260830140135 57 222 1.0 6.0 0.00 0.00 0.00 80 1017.8
20260830135633 57 161 1.0 4.0 0.00 0.00 0.00 80 1017.8
20260830135131 57 149 2.0 7.0 0.00 0.00 0.00 79 1017.8
20260830134904 57 257 2.0 7.0 0.00 0.00 0.00 78 1017.7
20260830134131 57 176 2.0 8.0 0.00 0.00 0.00 77 1017.7
20260830133631 56 226 2.0 8.0 0.00 0.00 0.00 78 1017.7
20260830133131 56 134 2.0 4.0 0.00 0.00 0.00 78 1017.7
20260830132630 56 136 2.0 4.0 0.00 0.00 0.00 77 1017.6
20260830132129 56 163 2.0 3.0 0.00 0.00 0.00 78 1017.6
20260830131635 55 136 1.0 3.0 0.00 0.00 0.00 79 1017.6
20260830131138 55 136 0.0 3.0 0.00 0.00 0.00 78 1017.6
20260830130636 55 122 0.0 0.0 0.00 0.00 0.00 79 1017.5
20260830130130 55 187 0.0 0.0 0.00 0.00 0.00 79 1017.7
20260830125630 55 191 0.0 0.0 0.00 0.00 0.00 79 1017.6
20260830125355 55 195 0.0 0.0 0.00 0.00 0.00 79 1017.6
20260830124630 55 195 0.0 0.0 0.00 0.00 0.00 78 1017.5
20260830124351 56 196 0.0 2.0 0.00 0.00 0.00 78 1017.5
20260830123629 56 205 0.0 2.0 0.00 0.00 0.00 76 1017.7
20260830123129 57 205 0.0 3.0 0.00 0.00 0.00 76 1017.7
20260830122858 56 205 1.0 4.0 0.00 0.00 0.00 76 1017.6
20260830122122 56 144 1.0 4.0 0.00 0.00 0.00 77 1017.6
20260830121844 56 132 1.0 3.0 0.00 0.00 0.00 77 1017.6
20260830121119 56 295 1.0 6.0 0.00 0.00 0.00 76 1017.7
20260830120616 57 211 2.0 7.0 0.00 0.00 0.00 75 1017.6
20260830120114 57 159 2.0 7.0 0.00 0.00 0.00 75 1017.7
20260830115613 57 212 0.0 3.0 0.00 0.00 0.00 75 1017.7
20260830115112 57 210 0.0 1.0 0.00 0.00 0.00 74 1017.7
20260830114611 57 207 1.0 6.0 0.00 0.00 0.00 74 1017.7
20260830114339 57 208 2.0 6.0 0.00 0.00 0.00 75 1017.8
20260830113605 57 228 2.0 7.0 0.00 0.00 0.00 75 1017.7
20260830113104 57 243 2.0 7.0 0.00 0.00 0.00 76 1017.7
20260830112605 57 187 2.0 5.0 0.00 0.00 0.00 76 1017.7
20260830112105 57 175 2.0 7.0 0.00 0.00 0.00 75 1017.7
20260830111603 57 148 3.0 9.0 0.00 0.00 0.00 76 1017.7
20260830111329 57 159 3.0 9.0 0.00 0.00 0.00 76 1017.7
20260830105828 57 166 4.0 9.0 0.00 0.00 0.00 75 1017.7
20260830105101 57 176 4.0 10.0 0.00 0.00 0.00 76 1017.7
20260830104601 57 170 4.0 10.0 0.00 0.00 0.00 75 1017.7
20260830104100 57 162 4.0 13.0 0.00 0.00 0.00 75 1017.6
20260830103555 58 176 4.0 13.0 0.00 0.00 0.00 75 1017.6
20260830103047 57 211 3.0 9.0 0.00 0.00 0.00 75 1017.5
20260830102543 58 174 4.0 10.0 0.00 0.00 0.00 75 1017.5
20260830102306 58 197 4.0 11.0 0.00 0.00 0.00 74 1017.5
20260830101530 58 188 4.0 11.0 0.00 0.00 0.00 73 1017.5
20260830101030 58 170 4.0 12.0 0.00 0.00 0.00 73 1017.4
20260830100530 58 158 4.0 12.0 0.00 0.00 0.00 74 1017.4
20260830100030 57 168 5.0 11.0 0.00 0.00 0.00 75 1017.3
20260830095529 57 159 4.0 10.0 0.00 0.00 0.00 75 1017.3
20260830095031 57 136 4.0 10.0 0.00 0.01 0.00 75 1017.4
20260830094535 57 140 4.0 10.0 0.00 0.01 0.00 75 1017.3
20260830094030 57 111 4.0 9.0 0.00 0.01 0.00 75 1017.4
20260830093530 58 198 4.0 10.0 0.00 0.02 0.00 74 1017.4
20260830093029 58 210 4.0 10.0 0.00 0.03 0.00 74 1017.4
20260830092530 58 166 4.0 10.0 0.00 0.05 0.00 74 1017.4
20260830092254 58 196 4.0 10.0 0.00 0.07 0.00 74 1017.5
20260830091529 58 182 4.0 9.0 0.00 0.08 0.00 73 1017.5
20260830091029 58 216 3.0 9.0 0.00 0.09 0.00 73 1017.5
20260830090530 58 187 4.0 10.0 0.00 0.09 0.00 73 1017.5
20260830090028 58 221 4.0 10.0 0.00 0.11 0.00 74 1017.6
20260830085529 58 165 4.0 12.0 0.00 0.12 0.00 74 1017.6
20260830085029 58 244 4.0 12.0 0.00 0.12 0.00 74 1017.6
20260830084526 58 161 5.0 11.0 0.00 0.12 0.00 73 1017.7
20260830084249 58 176 5.0 11.0 0.00 0.12 0.00 74 1017.6
20260830083526 58 200 4.0 11.0 0.00 0.12 0.00 74 1017.6
20260830083026 58 173 4.0 9.0 0.00 0.12 0.00 74 1017.5
20260830082526 58 222 4.0 10.0 0.00 0.12 0.00 73 1017.5
20260830082257 58 178 4.0 10.0 0.00 0.12 0.00 74 1017.5
20260830081526 58 185 3.0 8.0 0.00 0.12 0.00 74 1017.5
20260830081026 58 205 3.0 9.0 0.00 0.12 0.00 74 1017.4
20260830080250 58 180 2.0 8.0 0.00 0.12 0.00 73 1017.4
20260830075526 58 270 3.0 8.0 0.00 0.12 0.00 73 1017.3
20260830075026 58 295 3.0 9.0 0.00 0.12 0.00 74 1017.4
20260830074526 58 189 4.0 10.0 0.00 0.12 0.00 74 1017.3
20260830074026 58 117 4.0 13.0 0.00 0.12 0.00 73 1017.3
20260830073026 58 105 4.0 12.0 0.00 0.12 0.00 73 1017.3